Time,TemperatureF,DewpointF,PressureIn,WindDirection,WindDirectionDegrees,WindSpeedMPH,WindSpeedGustMPH,Humidity,HourlyPrecipIn,Conditions,Clouds,dailyrainin,SoftwareType,DateUTC
2013-03-23 00:00:00,33.1,29.7,30.04,ENE,57,6.0,13.0,87,0.00,CLR,SKC,0.00,WeatherDisplay:10.37,2013-03-23 05:00:00,
2013-03-23 00:05:00,33.1,29.7,30.04,NE,48,5.0,13.0,87,0.00,CLR,SKC,0.00,WeatherDisplay:10.37,2013-03-23 05:05:00,
2013-03-23 00:10:00,33.1,29.7,30.04,ENE,62,5.0,10.0,87,0.00,CLR,SKC,0.00,WeatherDisplay:10.37,2013-03-23 05:10:00,
2013-03-23 00:15:00,33.1,29.7,30.04,ENE,69,7.0,12.0,87,0.00,CLR,SKC,0.00,WeatherDisplay:10.37,2013-03-23 05:15:00,
2013-03-23 00:20:00,33.1,29.7,30.05,ENE,59,8.0,12.0,87,0.00,CLR,SKC,0.00,WeatherDisplay:10.37,2013-03-23 05:20:00,
2013-03-23 00:25:00,33.0,29.9,30.05,East,82,3.0,12.0,88,0.00,CLR,SKC,0.00,WeatherDisplay:10.37,2013-03-23 05:25:00,
2013-03-23 00:30:00,33.0,29.9,30.05,East,82,6.0,10.0,88,0.00,CLR,SKC,0.00,WeatherDisplay:10.37,2013-03-23 05:30:00,
2013-03-23 00:40:00,33.0,29.9,30.05,ENE,59,5.0,10.0,88,0.00,CLR,SKC,0.00,WeatherDisplay:10.37,2013-03-23 05:40:00,
2013-03-23 00:45:00,32.9,30.1,30.05,ENE,60,5.0,13.0,89,0.00,CLR,SKC,0.00,WeatherDisplay:10.37,2013-03-23 05:45:00,
2013-03-23 00:50:00,32.9,30.0,30.05,NE,44,9.0,14.0,89,0.00,CLR,SKC,0.00,WeatherDisplay:10.37,2013-03-23 05:50:00,
2013-03-23 00:55:00,32.8,30.0,30.05,ENE,57,7.0,10.0,89,0.00,CLR,SKC,0.00,WeatherDisplay:10.37,2013-03-23 05:55:00,
2013-03-23 01:00:00,32.8,29.9,30.05,NE,53,7.0,12.0,89,0.00,CLR,SKC,0.00,WeatherDisplay:10.37,2013-03-23 06:00:00,
2013-03-23 01:05:00,32.8,29.9,30.05,East,81,2.0,10.0,89,0.00,CLR,SKC,0.00,WeatherDisplay:10.37,2013-03-23 06:05:00,
2013-03-23 01:10:00,32.8,30.2,30.04,East,83,5.0,8.0,90,0.00,CLR,SKC,0.00,WeatherDisplay:10.37,2013-03-23 06:10:00,
2013-03-23 01:20:00,32.7,30.1,30.04,ENE,77,3.0,5.0,90,0.00,CLR,SKC,0.00,WeatherDisplay:10.37,2013-03-23 06:20:00,
2013-03-23 01:25:00,32.7,30.1,30.04,ENE,76,6.0,10.0,90,0.00,CLR,SKC,0.00,WeatherDisplay:10.37,2013-03-23 06:25:00,
2013-03-23 01:30:00,32.7,30.1,30.03,ENE,69,8.0,16.0,90,0.00,CLR,SKC,0.00,WeatherDisplay:10.37,2013-03-23 06:30:00,
2013-03-23 01:35:00,32.6,30.0,30.03,ENE,61,6.0,12.0,90,0.00,CLR,SKC,0.00,WeatherDisplay:10.37,2013-03-23 06:35:00,
2013-03-23 01:40:00,32.5,30.2,30.04,East,94,7.0,13.0,91,0.00,CLR,SKC,0.00,WeatherDisplay:10.37,2013-03-23 06:40:00,
2013-03-23 01:45:00,32.5,30.2,30.04,East,90,8.0,13.0,91,0.00,CLR,SKC,0.00,WeatherDisplay:10.37,2013-03-23 06:45:00,
2013-03-23 01:50:00,32.5,30.1,30.04,NE,52,3.0,13.0,91,0.00,CLR,SKC,0.00,WeatherDisplay:10.37,2013-03-23 06:50:00,
2013-03-23 02:00:00,32.5,30.1,30.03,ENE,78,6.0,10.0,91,0.00,CLR,SKC,0.00,WeatherDisplay:10.37,2013-03-23 07:00:00,
2013-03-23 02:05:00,32.4,30.1,30.03,ENE,69,6.0,12.0,91,0.00,CLR,SKC,0.00,WeatherDisplay:10.37,2013-03-23 07:05:00,
2013-03-23 02:10:00,32.4,30.1,30.03,NE,56,7.0,10.0,91,0.00,CLR,SKC,0.00,WeatherDisplay:10.37,2013-03-23 07:10:00,
2013-03-23 02:15:00,32.4,30.1,30.03,East,85,1.0,10.0,91,0.00,CLR,SKC,0.00,WeatherDisplay:10.37,2013-03-23 07:15:00,
2013-03-23 02:20:00,32.4,30.1,30.03,ENE,78,10.0,16.0,91,0.00,CLR,SKC,0.00,WeatherDisplay:10.37,2013-03-23 07:20:00,
2013-03-23 02:25:00,32.4,30.1,30.03,ENE,74,3.0,8.0,91,0.00,CLR,SKC,0.00,WeatherDisplay:10.37,2013-03-23 07:25:00,
2013-03-23 02:30:00,32.4,30.1,30.03,ENE,64,9.0,13.0,91,0.00,CLR,SKC,0.00,WeatherDisplay:10.37,2013-03-23 07:30:00,
2013-03-23 02:35:00,32.4,30.1,30.03,East,81,8.0,12.0,91,0.00,CLR,SKC,0.00,WeatherDisplay:10.37,2013-03-23 07:35:00,
2013-03-23 02:40:00,32.4,30.1,30.03,ESE,115,6.0,15.0,91,0.00,CLR,SKC,0.00,WeatherDisplay:10.37,2013-03-23 07:40:00,
2013-03-23 02:45:00,32.4,30.1,30.02,East,88,8.0,12.0,91,0.00,CLR,SKC,0.00,WeatherDisplay:10.37,2013-03-23 07:45:00,
2013-03-23 02:50:00,32.4,30.1,30.02,ENE,69,5.0,10.0,91,0.00,CLR,SKC,0.00,WeatherDisplay:10.37,2013-03-23 07:50:00,
2013-03-23 03:00:00,32.5,30.2,30.02,ENE,66,6.0,10.0,91,0.00,CLR,SKC,0.00,WeatherDisplay:10.37,2013-03-23 08:00:00,
2013-03-23 03:05:00,32.5,30.2,30.02,ENE,73,2.0,8.0,91,0.00,CLR,SKC,0.00,WeatherDisplay:10.37,2013-03-23 08:05:00,
2013-03-23 03:10:00,32.5,30.2,30.02,NE,51,2.0,10.0,91,0.00,CLR,SKC,0.00,WeatherDisplay:10.37,2013-03-23 08:10:00,
2013-03-23 03:20:00,32.5,29.9,30.02,ENE,77,1.0,8.0,90,0.00,CLR,SKC,0.00,WeatherDisplay:10.37,2013-03-23 08:20:00,
2013-03-23 03:25:00,32.6,30.0,30.02,East,100,7.0,10.0,90,0.00,CLR,SKC,0.00,WeatherDisplay:10.37,2013-03-23 08:25:00,
2013-03-23 03:30:00,32.6,30.0,30.02,ENE,66,2.0,7.0,90,0.00,CLR,SKC,0.00,WeatherDisplay:10.37,2013-03-23 08:30:00,
2013-03-23 03:35:00,32.7,30.1,30.02,ENE,78,1.0,7.0,90,0.00,CLR,SKC,0.00,WeatherDisplay:10.37,2013-03-23 08:35:00,
2013-03-23 03:40:00,32.7,30.1,30.02,East,95,3.0,7.0,90,0.00,CLR,SKC,0.00,WeatherDisplay:10.37,2013-03-23 08:40:00,
2013-03-23 03:45:00,32.7,29.8,30.02,East,84,3.0,13.0,89,0.00,CLR,SKC,0.00,WeatherDisplay:10.37,2013-03-23 08:45:00,
2013-03-23 03:50:00,32.7,29.8,30.02,ENE,70,5.0,7.0,89,0.00,CLR,SKC,0.00,WeatherDisplay:10.37,2013-03-23 08:50:00,
2013-03-23 03:55:00,32.8,29.9,30.02,East,79,3.0,13.0,89,0.00,CLR,SKC,0.00,WeatherDisplay:10.37,2013-03-23 08:55:00,
2013-03-23 04:00:00,32.8,29.9,30.02,East,81,5.0,8.0,89,0.00,CLR,SKC,0.00,WeatherDisplay:10.37,2013-03-23 09:00:00,
2013-03-23 04:05:00,32.8,29.9,30.02,ENE,75,2.0,12.0,89,0.00,CLR,SKC,0.00,WeatherDisplay:10.37,2013-03-23 09:05:00,
2013-03-23 04:10:00,32.9,30.0,30.01,East,83,3.0,3.0,89,0.00,CLR,SKC,0.00,WeatherDisplay:10.37,2013-03-23 09:10:00,
2013-03-23 04:15:00,32.9,30.0,30.01,East,90,1.0,7.0,89,0.00,CLR,SKC,0.00,WeatherDisplay:10.37,2013-03-23 09:15:00,
2013-03-23 04:20:00,32.9,30.0,30.02,East,79,0.0,5.0,89,0.00,CLR,SKC,0.00,WeatherDisplay:10.37,2013-03-23 09:20:00,
2013-03-23 04:25:00,32.9,30.0,30.02,East,83,2.0,5.0,89,0.00,CLR,SKC,0.00,WeatherDisplay:10.37,2013-03-23 09:25:00,
2013-03-23 04:30:00,33.0,30.1,30.02,ENE,78,8.0,8.0,89,0.00,CLR,SKC,0.00,WeatherDisplay:10.37,2013-03-23 09:30:00,
2013-03-23 04:35:00,33.0,30.1,30.02,ENE,69,1.0,10.0,89,0.00,CLR,SKC,0.00,WeatherDisplay:10.37,2013-03-23 09:35:00,
2013-03-23 04:40:00,33.0,30.1,30.02,NE,56,3.0,8.0,89,0.00,CLR,SKC,0.00,WeatherDisplay:10.37,2013-03-23 09:40:00,
2013-03-23 04:45:00,33.0,30.1,30.02,NE,52,5.0,10.0,89,0.00,CLR,SKC,0.00,WeatherDisplay:10.37,2013-03-23 09:45:00,
2013-03-23 04:50:00,33.0,30.1,30.02,NE,54,5.0,8.0,89,0.00,CLR,SKC,0.00,WeatherDisplay:10.37,2013-03-23 09:50:00,
2013-03-23 04:55:00,33.1,30.0,30.02,NE,53,7.0,10.0,88,0.00,CLR,SKC,0.00,WeatherDisplay:10.37,2013-03-23 09:55:00,
2013-03-23 05:00:00,33.1,30.0,30.02,ENE,57,8.0,12.0,88,0.00,CLR,SKC,0.00,WeatherDisplay:10.37,2013-03-23 10:00:00,
2013-03-23 05:05:00,33.1,30.0,30.01,NE,55,7.0,13.0,88,0.00,CLR,SKC,0.00,WeatherDisplay:10.37,2013-03-23 10:05:00,
2013-03-23 05:10:00,33.1,30.0,30.02,ENE,67,6.0,13.0,88,0.00,CLR,SKC,0.00,WeatherDisplay:10.37,2013-03-23 10:10:00,
2013-03-23 05:15:00,33.2,30.0,30.02,ENE,61,3.0,7.0,88,0.00,CLR,SKC,0.00,WeatherDisplay:10.37,2013-03-23 10:15:00,
2013-03-23 05:20:00,33.2,30.0,30.01,ENE,74,6.0,8.0,88,0.00,CLR,SKC,0.00,WeatherDisplay:10.37,2013-03-23 10:20:00,
2013-03-23 05:25:00,33.2,30.1,30.02,East,80,2.0,12.0,88,0.00,CLR,SKC,0.00,WeatherDisplay:10.37,2013-03-23 10:25:00,
2013-03-23 05:35:00,33.2,30.1,30.02,East,84,2.0,5.0,88,0.00,CLR,SKC,0.00,WeatherDisplay:10.37,2013-03-23 10:35:00,
2013-03-23 05:40:00,33.2,29.8,30.02,ENE,78,5.0,10.0,87,0.00,CLR,SKC,0.00,WeatherDisplay:10.37,2013-03-23 10:40:00,
2013-03-23 05:45:00,33.3,29.8,30.03,East,91,2.0,8.0,87,0.00,CLR,SKC,0.00,WeatherDisplay:10.37,2013-03-23 10:45:00,
2013-03-23 05:50:00,33.3,29.8,30.03,ENE,77,3.0,10.0,87,0.00,CLR,SKC,0.00,WeatherDisplay:10.37,2013-03-23 10:50:00,
2013-03-23 05:55:00,33.2,29.5,30.03,ENE,62,6.0,14.0,86,0.00,CLR,SKC,0.00,WeatherDisplay:10.37,2013-03-23 10:55:00,
2013-03-23 06:00:00,33.2,29.5,30.03,NE,55,7.0,10.0,86,0.00,CLR,SKC,0.00,WeatherDisplay:10.37,2013-03-23 11:00:00,
2013-03-23 06:05:00,33.2,29.8,30.03,East,79,3.0,10.0,87,0.00,CLR,SKC,0.00,WeatherDisplay:10.37,2013-03-23 11:05:00,
2013-03-23 06:10:00,33.2,29.8,30.03,East,88,5.0,10.0,87,0.00,CLR,SKC,0.00,WeatherDisplay:10.37,2013-03-23 11:10:00,
2013-03-23 06:15:00,33.2,29.8,30.02,ENE,67,9.0,15.0,87,0.00,CLR,SKC,0.00,WeatherDisplay:10.37,2013-03-23 11:15:00,
2013-03-23 06:20:00,33.1,29.7,30.03,NE,54,9.0,15.0,87,0.00,CLR,SKC,0.00,WeatherDisplay:10.37,2013-03-23 11:20:00,
2013-03-23 06:25:00,33.1,30.0,30.03,NE,48,8.0,15.0,88,0.00,CLR,SKC,0.00,WeatherDisplay:10.37,2013-03-23 11:25:00,
2013-03-23 06:30:00,33.1,30.0,30.02,NE,47,3.0,16.0,88,0.00,CLR,SKC,0.00,WeatherDisplay:10.37,2013-03-23 11:30:00,
2013-03-23 06:35:00,33.0,29.9,30.02,NE,44,10.0,15.0,88,0.00,CLR,SKC,0.00,WeatherDisplay:10.37,2013-03-23 11:35:00,
2013-03-23 06:40:00,33.0,29.9,30.02,NE,49,7.0,13.0,88,0.00,CLR,SKC,0.00,WeatherDisplay:10.37,2013-03-23 11:40:00,
2013-03-23 06:45:00,33.0,29.9,30.02,NE,46,7.0,15.0,88,0.00,CLR,SKC,0.00,WeatherDisplay:10.37,2013-03-23 11:45:00,
2013-03-23 06:50:00,33.0,29.9,30.02,NE,53,9.0,12.0,88,0.00,CLR,SKC,0.00,WeatherDisplay:10.37,2013-03-23 11:50:00,
2013-03-23 06:55:00,33.0,29.9,30.02,NE,47,7.0,13.0,88,0.00,CLR,SKC,0.00,WeatherDisplay:10.37,2013-03-23 11:55:00,
2013-03-23 07:00:00,33.0,29.9,30.02,NE,53,7.0,15.0,88,0.00,CLR,SKC,0.00,WeatherDisplay:10.37,2013-03-23 12:00:00,
2013-03-23 07:05:00,33.0,29.9,30.02,NE,46,6.0,21.0,88,0.00,CLR,SKC,0.00,WeatherDisplay:10.37,2013-03-23 12:05:00,
2013-03-23 07:10:00,33.0,29.9,30.03,NE,46,7.0,10.0,88,0.00,CLR,SKC,0.00,WeatherDisplay:10.37,2013-03-23 12:10:00,
2013-03-23 07:15:00,33.0,29.9,30.03,NE,49,7.0,15.0,88,0.00,CLR,SKC,0.00,WeatherDisplay:10.37,2013-03-23 12:15:00,
2013-03-23 07:20:00,33.1,29.6,30.03,NE,46,10.0,18.0,87,0.00,CLR,SKC,0.00,WeatherDisplay:10.37,2013-03-23 12:20:00,
2013-03-23 07:25:00,33.1,29.7,30.03,NE,56,8.0,13.0,87,0.00,CLR,SKC,0.00,WeatherDisplay:10.37,2013-03-23 12:25:00,
2013-03-23 07:30:00,33.1,29.7,30.03,ENE,57,6.0,16.0,87,0.00,CLR,SKC,0.00,WeatherDisplay:10.37,2013-03-23 12:30:00,
2013-03-23 07:35:00,33.2,29.7,30.03,ENE,58,10.0,13.0,87,0.00,CLR,SKC,0.00,WeatherDisplay:10.37,2013-03-23 12:35:00,
2013-03-23 07:40:00,33.2,29.8,30.03,NE,43,8.0,15.0,87,0.00,CLR,SKC,0.00,WeatherDisplay:10.37,2013-03-23 12:40:00,
2013-03-23 07:50:00,33.3,29.9,30.04,NE,46,12.0,15.0,87,0.00,CLR,SKC,0.00,WeatherDisplay:10.37,2013-03-23 12:50:00,
2013-03-23 07:55:00,33.4,29.6,30.04,NE,49,9.0,16.0,86,0.00,CLR,SKC,0.00,WeatherDisplay:10.37,2013-03-23 12:55:00,
2013-03-23 08:00:00,33.4,29.7,30.04,ENE,62,7.0,12.0,86,0.00,CLR,SKC,0.00,WeatherDisplay:10.37,2013-03-23 13:00:00,
2013-03-23 08:05:00,33.5,30.0,30.04,NE,42,9.0,15.0,87,0.00,CLR,SKC,0.00,WeatherDisplay:10.37,2013-03-23 13:05:00,
2013-03-23 08:10:00,33.5,29.8,30.03,NE,56,10.0,15.0,86,0.00,CLR,SKC,0.00,WeatherDisplay:10.37,2013-03-23 13:10:00,
2013-03-23 08:15:00,33.6,29.9,30.03,ENE,62,10.0,16.0,86,0.00,CLR,SKC,0.00,WeatherDisplay:10.37,2013-03-23 13:15:00,
2013-03-23 08:20:00,33.6,30.2,30.03,ENE,77,6.0,13.0,87,0.00,CLR,SKC,0.00,WeatherDisplay:10.37,2013-03-23 13:20:00,
2013-03-23 08:25:00,33.6,29.9,30.03,East,79,5.0,15.0,86,0.00,CLR,SKC,0.00,WeatherDisplay:10.37,2013-03-23 13:25:00,
2013-03-23 08:30:00,33.7,30.0,30.03,ENE,78,14.0,14.0,86,0.00,CLR,SKC,0.00,WeatherDisplay:10.37,2013-03-23 13:30:00,
2013-03-23 08:35:00,33.8,30.1,30.03,NE,55,6.0,12.0,86,0.00,CLR,SKC,0.00,WeatherDisplay:10.37,2013-03-23 13:35:00,
2013-03-23 08:40:00,33.9,30.5,30.03,East,87,3.0,10.0,87,0.00,CLR,SKC,0.00,WeatherDisplay:10.37,2013-03-23 13:40:00,
2013-03-23 08:45:00,33.9,30.2,30.03,NNE,30,14.0,18.0,86,0.00,CLR,SKC,0.00,WeatherDisplay:10.37,2013-03-23 13:45:00,
2013-03-23 08:50:00,34.0,30.3,30.03,NNE,21,13.0,18.0,86,0.00,CLR,SKC,0.00,WeatherDisplay:10.37,2013-03-23 13:50:00,
2013-03-23 08:55:00,34.1,30.1,30.04,ENE,65,10.0,17.0,85,0.00,CLR,SKC,0.00,WeatherDisplay:10.37,2013-03-23 13:55:00,
2013-03-23 09:00:00,34.2,30.2,30.05,ENE,60,3.0,10.0,85,0.00,CLR,SKC,0.00,WeatherDisplay:10.37,2013-03-23 14:00:00,
2013-03-23 09:05:00,34.3,30.2,30.05,East,89,1.0,10.0,85,0.00,CLR,SKC,0.00,WeatherDisplay:10.37,2013-03-23 14:05:00,
2013-03-23 09:10:00,34.3,30.3,30.06,ENE,74,6.0,16.0,85,0.00,CLR,SKC,0.00,WeatherDisplay:10.37,2013-03-23 14:10:00,
2013-03-23 09:15:00,34.4,30.4,30.06,ENE,60,9.0,13.0,85,0.00,CLR,SKC,0.00,WeatherDisplay:10.37,2013-03-23 14:15:00,
2013-03-23 09:20:00,34.4,30.4,30.06,ENE,63,6.0,13.0,85,0.00,CLR,SKC,0.00,WeatherDisplay:10.37,2013-03-23 14:20:00,
2013-03-23 09:25:00,34.6,30.5,30.06,ENE,72,5.0,13.0,85,0.00,CLR,SKC,0.00,WeatherDisplay:10.37,2013-03-23 14:25:00,
2013-03-23 09:30:00,34.6,30.3,30.05,ENE,61,5.0,13.0,84,0.00,CLR,SKC,0.00,WeatherDisplay:10.37,2013-03-23 14:30:00,
2013-03-23 09:35:00,34.7,30.4,30.05,ENE,57,7.0,13.0,84,0.00,CLR,SKC,0.00,WeatherDisplay:10.37,2013-03-23 14:35:00,
2013-03-23 09:40:00,34.8,30.4,30.05,ENE,61,8.0,12.0,84,0.00,CLR,SKC,0.00,WeatherDisplay:10.37,2013-03-23 14:40:00,
2013-03-23 09:45:00,34.9,30.5,30.05,ENE,65,7.0,13.0,84,0.00,CLR,SKC,0.00,WeatherDisplay:10.37,2013-03-23 14:45:00,
2013-03-23 09:50:00,34.9,30.3,30.04,ENE,71,9.0,15.0,83,0.01,RA,SKC,0.01,WeatherDisplay:10.37,2013-03-23 14:50:00,
2013-03-23 10:00:00,35.2,30.3,30.04,NE,46,8.0,13.0,82,0.00,CLR,SKC,0.01,WeatherDisplay:10.37,2013-03-23 15:00:00,
2013-03-23 10:05:00,35.3,30.4,30.05,ENE,64,8.0,15.0,82,0.00,CLR,SKC,0.01,WeatherDisplay:10.37,2013-03-23 15:05:00,
2013-03-23 10:10:00,35.5,30.5,30.05,ENE,74,5.0,16.0,82,0.00,CLR,SKC,0.01,WeatherDisplay:10.37,2013-03-23 15:10:00,
2013-03-23 10:15:00,35.5,30.3,30.05,ENE,77,7.0,15.0,81,0.00,CLR,SKC,0.01,WeatherDisplay:10.37,2013-03-23 15:15:00,
2013-03-23 10:20:00,35.5,30.3,30.05,ENE,58,9.0,13.0,81,0.00,CLR,SKC,0.01,WeatherDisplay:10.37,2013-03-23 15:20:00,
2013-03-23 10:25:00,35.6,30.3,30.05,NE,53,7.0,13.0,81,0.00,CLR,SKC,0.01,WeatherDisplay:10.37,2013-03-23 15:25:00,
2013-03-23 10:30:00,35.6,30.1,30.05,ENE,61,13.0,15.0,80,0.00,CLR,SKC,0.01,WeatherDisplay:10.37,2013-03-23 15:30:00,
2013-03-23 10:35:00,35.6,30.1,30.06,ENE,59,9.0,13.0,80,0.00,CLR,SKC,0.01,WeatherDisplay:10.37,2013-03-23 15:35:00,
2013-03-23 10:40:00,35.8,30.2,30.06,NE,52,7.0,14.0,80,0.00,CLR,SKC,0.01,WeatherDisplay:10.37,2013-03-23 15:40:00,
2013-03-23 10:50:00,36.0,30.4,30.06,ENE,61,12.0,16.0,80,0.00,CLR,SKC,0.01,WeatherDisplay:10.37,2013-03-23 15:50:00,
2013-03-23 11:00:00,36.2,30.6,30.06,NE,49,7.0,14.0,80,0.00,CLR,SKC,0.01,WeatherDisplay:10.37,2013-03-23 16:00:00,
2013-03-23 11:10:00,36.2,30.3,30.06,NE,56,10.0,15.0,79,0.00,CLR,SKC,0.01,WeatherDisplay:10.37,2013-03-23 16:10:00,
2013-03-23 11:15:00,36.1,30.2,30.07,NE,42,9.0,13.0,79,0.00,CLR,SKC,0.01,WeatherDisplay:10.37,2013-03-23 16:15:00,
2013-03-23 11:20:00,36.1,30.2,30.07,NE,34,8.0,13.0,79,0.01,RA,SKC,0.02,WeatherDisplay:10.37,2013-03-23 16:20:00,
2013-03-23 11:25:00,36.1,30.2,30.07,NE,46,12.0,15.0,79,0.00,RA,SKC,0.02,WeatherDisplay:10.37,2013-03-23 16:25:00,
2013-03-23 11:30:00,36.2,30.3,30.07,NE,41,6.0,13.0,79,0.00,CLR,SKC,0.02,WeatherDisplay:10.37,2013-03-23 16:30:00,
2013-03-23 11:40:00,36.2,30.0,30.06,NNE,31,12.0,18.0,78,0.00,CLR,SKC,0.02,WeatherDisplay:10.37,2013-03-23 16:40:00,
2013-03-23 11:45:00,36.2,30.0,30.06,NE,39,8.0,13.0,78,0.00,CLR,SKC,0.02,WeatherDisplay:10.37,2013-03-23 16:45:00,
2013-03-23 11:50:00,36.4,30.2,30.06,ENE,59,6.0,13.0,78,0.00,CLR,SKC,0.02,WeatherDisplay:10.37,2013-03-23 16:50:00,
2013-03-23 12:00:00,36.4,29.9,30.05,NE,50,9.0,12.0,77,0.00,CLR,SKC,0.02,WeatherDisplay:10.37,2013-03-23 17:00:00,
2013-03-23 12:05:00,36.5,29.9,30.05,NE,43,7.0,18.0,77,0.00,CLR,SKC,0.02,WeatherDisplay:10.37,2013-03-23 17:05:00,
2013-03-23 12:10:00,36.5,30.0,30.04,NE,39,9.0,16.0,77,0.00,CLR,SKC,0.02,WeatherDisplay:10.37,2013-03-23 17:10:00,
2013-03-23 12:15:00,36.5,30.0,30.03,NNE,29,16.0,22.0,77,0.00,CLR,SKC,0.02,WeatherDisplay:10.37,2013-03-23 17:15:00,
2013-03-23 12:20:00,36.5,30.0,30.03,NE,40,9.0,21.0,77,0.00,CLR,SKC,0.02,WeatherDisplay:10.37,2013-03-23 17:20:00,
2013-03-23 12:25:00,36.6,29.8,30.03,NE,36,9.0,18.0,76,0.00,CLR,SKC,0.02,WeatherDisplay:10.37,2013-03-23 17:25:00,
2013-03-23 12:30:00,36.6,29.8,30.03,NE,48,12.0,17.0,76,0.00,CLR,SKC,0.02,WeatherDisplay:10.37,2013-03-23 17:30:00,
2013-03-23 12:35:00,36.6,29.7,30.02,NE,46,12.0,15.0,76,0.00,CLR,SKC,0.02,WeatherDisplay:10.37,2013-03-23 17:35:00,
2013-03-23 12:40:00,36.6,29.4,30.01,NE,45,15.0,20.0,75,0.00,CLR,SKC,0.02,WeatherDisplay:10.37,2013-03-23 17:40:00,
2013-03-23 12:45:00,36.6,29.4,30.00,ENE,63,16.0,24.0,75,0.00,CLR,SKC,0.02,WeatherDisplay:10.37,2013-03-23 17:45:00,
2013-03-23 12:50:00,36.6,29.4,30.00,ENE,57,14.0,22.0,75,0.00,CLR,SKC,0.02,WeatherDisplay:10.37,2013-03-23 17:50:00,
2013-03-23 12:55:00,36.8,29.6,29.99,NE,56,10.0,20.0,75,0.00,CLR,SKC,0.02,WeatherDisplay:10.37,2013-03-23 17:55:00,
2013-03-23 13:00:00,36.9,29.4,29.99,ENE,75,16.0,24.0,74,0.00,CLR,SKC,0.02,WeatherDisplay:10.37,2013-03-23 18:00:00,
2013-03-23 13:05:00,37.1,29.6,29.98,ENE,59,13.0,22.0,74,0.00,CLR,SKC,0.02,WeatherDisplay:10.37,2013-03-23 18:05:00,
2013-03-23 13:15:00,37.8,29.9,29.97,ENE,65,13.0,26.0,73,0.00,RA,SKC,0.03,WeatherDisplay:10.37,2013-03-23 18:15:00,
2013-03-23 13:20:00,38.4,30.1,29.97,NE,54,14.0,21.0,72,0.00,,SKC,0.03,WeatherDisplay:10.37,2013-03-23 18:20:00,
2013-03-23 13:30:00,38.2,29.3,29.98,NE,44,13.0,26.0,70,0.00,CLR,SKC,0.03,WeatherDisplay:10.37,2013-03-23 18:30:00,
2013-03-23 13:40:00,38.1,29.2,29.98,ENE,57,9.0,19.0,70,0.00,CLR,SKC,0.03,WeatherDisplay:10.37,2013-03-23 18:40:00,
2013-03-23 13:45:00,38.1,29.2,29.98,ENE,57,12.0,21.0,70,0.00,CLR,SKC,0.03,WeatherDisplay:10.37,2013-03-23 18:45:00,
2013-03-23 13:50:00,38.1,28.8,29.97,ENE,58,16.0,28.0,69,0.00,CLR,SKC,0.03,WeatherDisplay:10.37,2013-03-23 18:50:00,
2013-03-23 13:55:00,38.0,28.7,29.97,NE,55,14.0,24.0,69,0.00,CLR,SKC,0.03,WeatherDisplay:10.37,2013-03-23 18:55:00,
2013-03-23 14:05:00,38.0,28.4,29.98,ENE,57,13.0,20.0,68,0.00,CLR,SKC,0.03,WeatherDisplay:10.37,2013-03-23 19:05:00,
2013-03-23 14:10:00,38.0,28.7,29.97,NE,43,10.0,16.0,69,0.00,CLR,SKC,0.03,WeatherDisplay:10.37,2013-03-23 19:10:00,
2013-03-23 14:15:00,38.1,28.4,29.97,NE,47,10.0,15.0,68,0.00,CLR,SKC,0.03,WeatherDisplay:10.37,2013-03-23 19:15:00,
2013-03-23 14:20:00,38.0,28.4,29.97,NE,50,10.0,22.0,68,0.00,CLR,SKC,0.03,WeatherDisplay:10.37,2013-03-23 19:20:00,
2013-03-23 14:25:00,38.0,28.4,29.97,NNE,30,12.0,20.0,68,0.00,CLR,SKC,0.03,WeatherDisplay:10.37,2013-03-23 19:25:00,
2013-03-23 14:30:00,38.1,28.8,29.96,NE,36,12.0,22.0,69,0.00,CLR,SKC,0.03,WeatherDisplay:10.37,2013-03-23 19:30:00,
2013-03-23 14:40:00,38.1,28.5,29.95,NE,49,15.0,24.0,68,0.00,CLR,SKC,0.03,WeatherDisplay:10.37,2013-03-23 19:40:00,
2013-03-23 14:45:00,38.2,28.5,29.94,NE,48,12.0,21.0,68,0.00,CLR,SKC,0.03,WeatherDisplay:10.37,2013-03-23 19:45:00,
2013-03-23 14:50:00,38.2,28.6,29.94,NE,52,13.0,21.0,68,0.00,CLR,SKC,0.03,WeatherDisplay:10.37,2013-03-23 19:50:00,
2013-03-23 14:55:00,38.3,28.7,29.94,NE,47,16.0,26.0,68,0.00,CLR,SKC,0.03,WeatherDisplay:10.37,2013-03-23 19:55:00,
2013-03-23 15:00:00,38.4,28.4,29.93,ENE,59,18.0,24.0,67,0.00,CLR,SKC,0.03,WeatherDisplay:10.37,2013-03-23 20:00:00,
2013-03-23 15:05:00,38.4,29.1,29.93,NE,42,14.0,20.0,69,0.00,CLR,SKC,0.03,WeatherDisplay:10.37,2013-03-23 20:05:00,
2013-03-23 15:15:00,38.1,28.8,29.93,NE,46,12.0,16.0,69,0.00,CLR,SKC,0.03,WeatherDisplay:10.37,2013-03-23 20:15:00,
2013-03-23 15:20:00,38.0,29.4,29.94,NE,53,9.0,18.0,71,0.00,CLR,SKC,0.03,WeatherDisplay:10.37,2013-03-23 20:20:00,
2013-03-23 15:25:00,37.6,29.8,29.95,ENE,63,7.0,20.0,73,0.00,CLR,SKC,0.03,WeatherDisplay:10.37,2013-03-23 20:25:00,
2013-03-23 15:30:00,37.1,29.9,29.95,ENE,64,14.0,18.0,75,0.00,CLR,SKC,0.03,WeatherDisplay:10.37,2013-03-23 20:30:00,
2013-03-23 15:35:00,36.5,30.2,29.96,NE,38,14.0,16.0,78,0.00,CLR,SKC,0.03,WeatherDisplay:10.37,2013-03-23 20:35:00,
2013-03-23 15:40:00,35.9,30.6,29.97,NE,38,7.0,13.0,81,0.00,CLR,SKC,0.03,WeatherDisplay:10.37,2013-03-23 20:40:00,
2013-03-23 15:45:00,35.3,30.9,29.96,NE,40,6.0,12.0,84,0.00,CLR,SKC,0.03,WeatherDisplay:10.37,2013-03-23 20:45:00,
2013-03-23 15:50:00,34.8,31.0,29.96,NE,39,5.0,7.0,86,0.00,CLR,SKC,0.03,WeatherDisplay:10.37,2013-03-23 20:50:00,
2013-03-23 15:55:00,34.4,31.2,29.95,NE,49,12.0,18.0,88,0.00,CLR,SKC,0.03,WeatherDisplay:10.37,2013-03-23 20:55:00,
2013-03-23 16:00:00,33.9,31.3,29.95,NE,43,7.0,10.0,90,0.00,CLR,SKC,0.03,WeatherDisplay:10.37,2013-03-23 21:00:00,
2013-03-23 16:05:00,33.5,31.2,29.95,NE,56,8.0,10.0,91,0.00,CLR,SKC,0.03,WeatherDisplay:10.37,2013-03-23 21:05:00,
2013-03-23 16:10:00,33.2,31.2,29.94,NE,46,7.0,12.0,92,0.00,CLR,SKC,0.03,WeatherDisplay:10.37,2013-03-23 21:10:00,
2013-03-23 16:15:00,33.1,31.3,29.95,NNE,32,9.0,12.0,93,0.00,CLR,SKC,0.03,WeatherDisplay:10.37,2013-03-23 21:15:00,
2013-03-23 16:20:00,33.0,31.2,29.94,NE,39,6.0,10.0,93,0.00,CLR,SKC,0.03,WeatherDisplay:10.37,2013-03-23 21:20:00,
2013-03-23 16:25:00,33.0,31.5,29.94,NE,44,8.0,12.0,94,0.00,CLR,SKC,0.03,WeatherDisplay:10.37,2013-03-23 21:25:00,
2013-03-23 16:30:00,32.9,31.4,29.94,NE,43,3.0,10.0,94,0.00,CLR,SKC,0.03,WeatherDisplay:10.37,2013-03-23 21:30:00,
2013-03-23 16:35:00,32.8,31.3,29.94,NE,43,6.0,8.0,94,0.00,CLR,SKC,0.03,WeatherDisplay:10.37,2013-03-23 21:35:00,
2013-03-23 16:40:00,32.8,31.3,29.93,NE,50,5.0,10.0,94,0.00,CLR,SKC,0.03,WeatherDisplay:10.37,2013-03-23 21:40:00,
2013-03-23 16:45:00,32.8,31.5,29.93,NE,43,7.0,10.0,95,0.00,CLR,SKC,0.03,WeatherDisplay:10.37,2013-03-23 21:45:00,
2013-03-23 16:50:00,32.8,31.5,29.92,NE,49,5.0,8.0,95,0.00,CLR,SKC,0.03,WeatherDisplay:10.37,2013-03-23 21:50:00,
2013-03-23 16:55:00,32.7,31.5,29.92,NE,49,6.0,12.0,95,0.00,CLR,SKC,0.03,WeatherDisplay:10.37,2013-03-23 21:55:00,
2013-03-23 17:00:00,32.7,31.4,29.92,NE,52,5.0,8.0,95,0.00,CLR,SKC,0.03,WeatherDisplay:10.37,2013-03-23 22:00:00,
2013-03-23 17:05:00,32.7,31.4,29.92,NE,43,3.0,7.0,95,0.00,CLR,SKC,0.03,WeatherDisplay:10.37,2013-03-23 22:05:00,
2013-03-23 17:10:00,32.6,31.3,29.92,NE,43,5.0,10.0,95,0.00,CLR,SKC,0.03,WeatherDisplay:10.37,2013-03-23 22:10:00,
2013-03-23 17:20:00,32.6,31.6,29.92,NE,40,5.0,10.0,96,0.00,CLR,SKC,0.03,WeatherDisplay:10.37,2013-03-23 22:20:00,
2013-03-23 17:25:00,32.7,31.7,29.93,NE,34,3.0,7.0,96,0.00,CLR,SKC,0.03,WeatherDisplay:10.37,2013-03-23 22:25:00,
2013-03-23 17:30:00,32.7,31.7,29.93,NE,41,6.0,8.0,96,0.00,CLR,SKC,0.03,WeatherDisplay:10.37,2013-03-23 22:30:00,
2013-03-23 17:35:00,32.7,31.7,29.92,NE,47,3.0,6.0,96,0.00,CLR,SKC,0.03,WeatherDisplay:10.37,2013-03-23 22:35:00,
2013-03-23 17:40:00,32.7,31.7,29.92,NE,52,3.0,5.0,96,0.00,CLR,SKC,0.03,WeatherDisplay:10.37,2013-03-23 22:40:00,
2013-03-23 17:45:00,32.7,31.7,29.93,ENE,64,6.0,7.0,96,0.00,CLR,SKC,0.03,WeatherDisplay:10.37,2013-03-23 22:45:00,
2013-03-23 17:50:00,32.7,31.7,29.93,NE,54,6.0,8.0,96,0.00,CLR,SKC,0.03,WeatherDisplay:10.37,2013-03-23 22:50:00,
2013-03-23 17:55:00,32.8,31.8,29.93,NNE,29,2.0,7.0,96,0.00,CLR,SKC,0.03,WeatherDisplay:10.37,2013-03-23 22:55:00,
2013-03-23 18:00:00,32.8,31.8,29.93,NNE,32,5.0,7.0,96,0.00,CLR,SKC,0.03,WeatherDisplay:10.37,2013-03-23 23:00:00,
2013-03-23 18:05:00,32.8,31.8,29.93,NE,34,7.0,8.0,96,0.00,CLR,SKC,0.03,WeatherDisplay:10.37,2013-03-23 23:05:00,
2013-03-23 18:10:00,32.8,31.8,29.93,NNE,24,6.0,8.0,96,0.00,CLR,SKC,0.03,WeatherDisplay:10.37,2013-03-23 23:10:00,
2013-03-23 18:20:00,32.8,31.8,29.93,NNE,26,6.0,10.0,96,0.00,CLR,SKC,0.03,WeatherDisplay:10.37,2013-03-23 23:20:00,
2013-03-23 18:25:00,32.8,31.8,29.93,NNE,17,6.0,12.0,96,0.00,CLR,SKC,0.03,WeatherDisplay:10.37,2013-03-23 23:25:00,
2013-03-23 18:30:00,32.8,31.8,29.93,North,6,7.0,10.0,96,0.00,CLR,SKC,0.03,WeatherDisplay:10.37,2013-03-23 23:30:00,
2013-03-23 18:35:00,32.7,31.7,29.92,NNE,15,8.0,11.0,96,0.00,CLR,SKC,0.03,WeatherDisplay:10.37,2013-03-23 23:35:00,
2013-03-23 18:45:00,32.7,32.0,29.92,North,5,13.0,15.0,97,0.00,CLR,SKC,0.03,WeatherDisplay:10.37,2013-03-23 23:45:00,
2013-03-23 18:50:00,32.8,32.0,29.92,North,10,10.0,12.0,97,0.00,CLR,SKC,0.03,WeatherDisplay:10.37,2013-03-23 23:50:00,
2013-03-23 18:55:00,32.8,32.1,29.92,NNE,29,8.0,10.0,97,0.00,CLR,SKC,0.03,WeatherDisplay:10.37,2013-03-23 23:55:00,
2013-03-23 19:00:00,32.8,32.1,29.92,NNE,25,8.0,16.0,97,0.00,CLR,SKC,0.03,WeatherDisplay:10.37,2013-03-24 00:00:00,
2013-03-23 19:05:00,32.8,32.1,29.92,NNE,25,8.0,13.0,97,0.00,CLR,SKC,0.03,WeatherDisplay:10.37,2013-03-24 00:05:00,
2013-03-23 19:10:00,32.9,32.1,29.92,NNE,21,12.0,16.0,97,0.00,CLR,SKC,0.03,WeatherDisplay:10.37,2013-03-24 00:10:00,
2013-03-23 19:15:00,32.9,32.2,29.92,NNE,23,12.0,20.0,97,0.00,CLR,SKC,0.03,WeatherDisplay:10.37,2013-03-24 00:15:00,
2013-03-23 19:20:00,32.9,32.2,29.92,NNE,26,8.0,13.0,97,0.00,CLR,SKC,0.03,WeatherDisplay:10.37,2013-03-24 00:20:00,
2013-03-23 19:25:00,33.0,32.2,29.92,North,9,10.0,16.0,97,0.00,CLR,SKC,0.03,WeatherDisplay:10.37,2013-03-24 00:25:00,
2013-03-23 19:30:00,32.9,32.2,29.93,NNE,27,9.0,16.0,97,0.00,CLR,SKC,0.03,WeatherDisplay:10.37,2013-03-24 00:30:00,
2013-03-23 19:35:00,32.9,32.2,29.93,NNE,22,14.0,18.0,97,0.00,CLR,SKC,0.03,WeatherDisplay:10.37,2013-03-24 00:35:00,
2013-03-23 19:45:00,32.8,32.1,29.93,NNE,23,10.0,16.0,97,0.00,CLR,SKC,0.03,WeatherDisplay:10.37,2013-03-24 00:45:00,
2013-03-23 19:50:00,32.8,32.1,29.94,NNE,18,13.0,15.0,97,0.00,CLR,SKC,0.03,WeatherDisplay:10.37,2013-03-24 00:50:00,
2013-03-23 19:55:00,32.8,32.1,29.94,NNE,32,12.0,15.0,97,0.00,CLR,SKC,0.03,WeatherDisplay:10.37,2013-03-24 00:55:00,
2013-03-23 20:00:00,32.8,32.1,29.94,NE,39,9.0,16.0,97,0.00,CLR,SKC,0.03,WeatherDisplay:10.37,2013-03-24 01:00:00,
2013-03-23 20:05:00,32.8,32.1,29.94,NE,34,10.0,15.0,97,0.00,CLR,SKC,0.03,WeatherDisplay:10.37,2013-03-24 01:05:00,
2013-03-23 20:10:00,32.8,32.1,29.94,NE,39,8.0,13.0,97,0.00,CLR,SKC,0.03,WeatherDisplay:10.37,2013-03-24 01:10:00,
2013-03-23 20:15:00,32.8,32.1,29.94,NNE,32,10.0,15.0,97,0.00,CLR,SKC,0.03,WeatherDisplay:10.37,2013-03-24 01:15:00,
2013-03-23 20:20:00,32.8,32.1,29.94,NE,36,14.0,18.0,97,0.00,CLR,SKC,0.03,WeatherDisplay:10.37,2013-03-24 01:20:00,
2013-03-23 20:30:00,32.8,32.0,29.95,North,10,9.0,10.0,97,0.00,CLR,SKC,0.03,WeatherDisplay:10.37,2013-03-24 01:30:00,
2013-03-23 20:35:00,32.8,32.0,29.95,NNE,32,9.0,16.0,97,0.00,CLR,SKC,0.03,WeatherDisplay:10.37,2013-03-24 01:35:00,
2013-03-23 20:40:00,32.8,32.0,29.95,NE,38,13.0,16.0,97,0.00,CLR,SKC,0.03,WeatherDisplay:10.37,2013-03-24 01:40:00,
2013-03-23 20:45:00,32.8,32.1,29.95,NNE,30,12.0,16.0,97,0.00,CLR,SKC,0.03,WeatherDisplay:10.37,2013-03-24 01:45:00,
2013-03-23 20:50:00,32.8,32.1,29.95,NNE,22,13.0,21.0,97,0.00,CLR,SKC,0.03,WeatherDisplay:10.37,2013-03-24 01:50:00,
2013-03-23 20:55:00,32.8,32.0,29.96,NNE,18,9.0,14.0,97,0.00,CLR,SKC,0.03,WeatherDisplay:10.37,2013-03-24 01:55:00,
2013-03-23 21:00:00,32.8,32.1,29.96,NNE,31,7.0,18.0,97,0.00,CLR,SKC,0.03,WeatherDisplay:10.37,2013-03-24 02:00:00,
2013-03-23 21:05:00,32.8,32.1,29.96,NE,39,9.0,10.0,97,0.00,CLR,SKC,0.03,WeatherDisplay:10.37,2013-03-24 02:05:00,
2013-03-23 21:10:00,32.7,32.0,29.96,NNE,19,6.0,12.0,97,0.00,CLR,SKC,0.03,WeatherDisplay:10.37,2013-03-24 02:10:00,
2013-03-23 21:20:00,32.7,31.9,29.96,NNE,12,6.0,10.0,97,0.00,CLR,SKC,0.03,WeatherDisplay:10.37,2013-03-24 02:20:00,
2013-03-23 21:25:00,32.7,31.9,29.96,NNE,16,8.0,12.0,97,0.00,CLR,SKC,0.03,WeatherDisplay:10.37,2013-03-24 02:25:00,
2013-03-23 21:30:00,32.7,32.0,29.96,NNE,22,9.0,13.0,97,0.00,CLR,SKC,0.03,WeatherDisplay:10.37,2013-03-24 02:30:00,
2013-03-23 21:40:00,32.7,32.0,29.96,NNE,28,6.0,13.0,97,0.00,CLR,SKC,0.03,WeatherDisplay:10.37,2013-03-24 02:40:00,
2013-03-23 21:45:00,32.7,32.0,29.97,NNE,17,7.0,13.0,97,0.00,CLR,SKC,0.03,WeatherDisplay:10.37,2013-03-24 02:45:00,
2013-03-23 21:50:00,32.8,32.0,29.97,NNE,23,5.0,13.0,97,0.00,CLR,SKC,0.03,WeatherDisplay:10.37,2013-03-24 02:50:00,
2013-03-23 21:55:00,32.8,32.1,29.97,NNE,20,7.0,10.0,97,0.00,CLR,SKC,0.03,WeatherDisplay:10.37,2013-03-24 02:55:00,
2013-03-23 22:00:00,32.8,32.1,29.97,NNE,14,6.0,10.0,97,0.00,CLR,SKC,0.03,WeatherDisplay:10.37,2013-03-24 03:00:00,
2013-03-23 22:05:00,32.9,32.2,29.97,NNE,30,9.0,13.0,97,0.00,CLR,SKC,0.03,WeatherDisplay:10.37,2013-03-24 03:05:00,
2013-03-23 22:10:00,32.8,32.1,29.96,NNE,27,14.0,16.0,97,0.00,CLR,SKC,0.03,WeatherDisplay:10.37,2013-03-24 03:10:00,
2013-03-23 22:15:00,32.8,32.1,29.96,NNE,21,10.0,13.0,97,0.00,CLR,SKC,0.03,WeatherDisplay:10.37,2013-03-24 03:15:00,
2013-03-23 22:25:00,32.8,32.1,29.95,NE,41,13.0,20.0,97,0.00,CLR,SKC,0.03,WeatherDisplay:10.37,2013-03-24 03:25:00,
2013-03-23 22:30:00,32.8,32.0,29.95,NE,41,17.0,26.0,97,0.00,CLR,SKC,0.03,WeatherDisplay:10.37,2013-03-24 03:30:00,
2013-03-23 22:35:00,32.8,32.0,29.95,NE,41,10.0,17.0,97,0.00,CLR,SKC,0.03,WeatherDisplay:10.37,2013-03-24 03:35:00,
2013-03-23 22:40:00,32.7,32.0,29.95,NNE,33,15.0,18.0,97,0.00,CLR,SKC,0.03,WeatherDisplay:10.37,2013-03-24 03:40:00,
2013-03-23 22:45:00,32.7,32.0,29.95,NNE,32,12.0,16.0,97,0.00,CLR,SKC,0.03,WeatherDisplay:10.37,2013-03-24 03:45:00,
2013-03-23 22:50:00,32.7,32.0,29.94,NNE,33,12.0,18.0,97,0.00,CLR,SKC,0.03,WeatherDisplay:10.37,2013-03-24 03:50:00,
2013-03-23 23:00:00,32.7,32.0,29.92,NNE,32,12.0,21.0,97,0.00,CLR,SKC,0.03,WeatherDisplay:10.37,2013-03-24 04:00:00,
2013-03-23 23:05:00,32.7,31.9,29.91,NNE,25,15.0,18.0,97,0.00,CLR,SKC,0.03,WeatherDisplay:10.37,2013-03-24 04:05:00,
2013-03-23 23:10:00,32.6,31.9,29.90,NNE,33,15.0,24.0,97,0.00,CLR,SKC,0.03,WeatherDisplay:10.37,2013-03-24 04:10:00,
2013-03-23 23:15:00,32.6,31.9,29.89,NE,47,12.0,29.0,97,0.00,CLR,SKC,0.03,WeatherDisplay:10.37,2013-03-24 04:15:00,
2013-03-23 23:20:00,32.6,31.9,29.90,NNE,33,20.0,24.0,97,0.00,CLR,SKC,0.03,WeatherDisplay:10.37,2013-03-24 04:20:00,
2013-03-23 23:25:00,32.6,31.9,29.90,NNE,17,13.0,18.0,97,0.00,CLR,SKC,0.03,WeatherDisplay:10.37,2013-03-24 04:25:00,
2013-03-23 23:30:00,32.6,31.9,29.90,North,11,13.0,16.0,97,0.00,CLR,SKC,0.03,WeatherDisplay:10.37,2013-03-24 04:30:00,
2013-03-23 23:35:00,32.6,31.9,29.90,NNE,22,14.0,18.0,97,0.00,CLR,SKC,0.03,WeatherDisplay:10.37,2013-03-24 04:35:00,
2013-03-23 23:40:00,32.6,31.9,29.91,NNE,16,14.0,20.0,97,0.00,CLR,SKC,0.03,WeatherDisplay:10.37,2013-03-24 04:40:00,
2013-03-23 23:50:00,32.6,31.9,29.89,NE,35,18.0,30.0,97,0.00,CLR,SKC,0.03,WeatherDisplay:10.37,2013-03-24 04:50:00,